TimeCST,TemperatureF,Dew PointF,Humidity,Sea Level PressureIn,VisibilityMPH,Wind Direction,Wind SpeedMPH,Gust SpeedMPH,PrecipitationIn,Events,Conditions,WindDirDegrees,DateUTC
12:15 AM,17.6,10.4,73,30.35,10.0,Calm,Calm,-,N/A,,Clear,0,2013-01-18 06:15:00
12:34 AM,17.6,10.4,73,30.35,10.0,Calm,Calm,-,N/A,,Mostly Cloudy,0,2013-01-18 06:34:00
12:54 AM,19.4,12.2,74,30.34,10.0,SE,3.5,-,N/A,,Overcast,140,2013-01-18 06:54:00
1:15 AM,19.4,12.2,74,30.34,10.0,SE,4.6,-,N/A,,Overcast,140,2013-01-18 07:15:00
1:34 AM,19.4,12.2,74,30.32,10.0,ESE,6.9,-,N/A,,Overcast,120,2013-01-18 07:34:00
1:54 AM,19.4,10.4,68,30.31,10.0,SE,6.9,-,N/A,,Overcast,130,2013-01-18 07:54:00
2:15 AM,19.4,12.2,74,30.32,7.0,SE,5.8,-,N/A,Snow,Light Snow,130,2013-01-18 08:15:00
2:34 AM,19.4,12.2,74,30.31,1.8,ESE,5.8,-,N/A,Snow,Light Snow,120,2013-01-18 08:34:00
2:54 AM,19.4,14.0,80,30.29,2.0,SE,8.1,-,N/A,Snow,Light Snow,130,2013-01-18 08:54:00
3:15 AM,19.4,14.0,80,30.28,10.0,ESE,9.2,-,N/A,,Overcast,120,2013-01-18 09:15:00
3:34 AM,19.4,14.0,80,30.26,10.0,SE,8.1,-,N/A,,Overcast,140,2013-01-18 09:34:00
3:54 AM,19.4,14.0,80,30.24,10.0,SE,9.2,-,N/A,,Overcast,130,2013-01-18 09:54:00
4:15 AM,19.4,14.0,80,30.22,10.0,ESE,9.2,-,N/A,,Overcast,120,2013-01-18 10:15:00
4:34 AM,19.4,14.0,80,30.21,10.0,SE,10.4,-,N/A,,Overcast,140,2013-01-18 10:34:00
4:54 AM,19.4,14.0,80,30.19,10.0,SE,8.1,-,N/A,,Overcast,130,2013-01-18 10:54:00
5:15 AM,19.4,14.0,80,30.17,10.0,SE,10.4,-,N/A,,Mostly Cloudy,130,2013-01-18 11:15:00
5:34 AM,19.4,14.0,80,30.15,10.0,SE,9.2,-,N/A,,Mostly Cloudy,130,2013-01-18 11:34:00
5:54 AM,19.4,14.0,80,30.14,10.0,SE,8.1,-,N/A,,Mostly Cloudy,130,2013-01-18 11:54:00
6:15 AM,19.4,14.0,80,30.12,10.0,SE,9.2,-,N/A,,Scattered Clouds,130,2013-01-18 12:15:00
6:34 AM,19.4,14.0,80,30.10,10.0,SE,9.2,-,N/A,,Clear,130,2013-01-18 12:34:00
6:54 AM,21.2,15.8,80,30.08,10.0,SE,8.1,-,N/A,,Clear,140,2013-01-18 12:54:00
7:15 AM,21.2,15.8,80,30.05,10.0,SE,9.2,-,N/A,,Clear,140,2013-01-18 13:15:00
7:34 AM,21.2,17.6,86,30.03,10.0,SE,8.1,-,N/A,,Clear,130,2013-01-18 13:34:00
7:54 AM,23.0,17.6,80,30.02,10.0,SE,5.8,-,N/A,,Clear,130,2013-01-18 13:54:00
8:14 AM,23.0,19.4,86,30.00,10.0,SE,4.6,-,N/A,,Clear,140,2013-01-18 14:14:00
8:34 AM,26.6,19.4,74,29.99,10.0,SE,6.9,-,N/A,,Clear,130,2013-01-18 14:34:00
8:54 AM,28.4,21.2,74,29.98,10.0,South,4.6,-,N/A,,Clear,170,2013-01-18 14:54:00
9:14 AM,30.2,21.2,69,29.98,10.0,South,4.6,-,N/A,,Clear,180,2013-01-18 15:14:00
9:34 AM,32.0,24.8,75,29.97,10.0,South,3.5,-,N/A,,Clear,190,2013-01-18 15:34:00
9:54 AM,32.0,24.8,75,29.96,10.0,South,6.9,-,N/A,,Clear,190,2013-01-18 15:54:00
10:14 AM,32.0,24.8,75,29.94,10.0,South,5.8,-,N/A,,Clear,170,2013-01-18 16:14:00
10:34 AM,33.8,24.8,70,29.92,10.0,SSW,8.1,17.3,N/A,,Clear,200,2013-01-18 16:34:00
10:54 AM,37.4,26.6,65,29.90,10.0,SSW,10.4,-,N/A,,Clear,210,2013-01-18 16:54:00
11:14 AM,37.4,26.6,65,29.89,10.0,SSW,10.4,16.1,N/A,,Clear,210,2013-01-18 17:14:00
11:34 AM,37.4,26.6,65,29.87,10.0,SSW,11.5,19.6,N/A,,Clear,210,2013-01-18 17:34:00
11:54 AM,39.2,26.6,61,29.86,10.0,SW,9.2,-,N/A,,Clear,220,2013-01-18 17:54:00
12:14 PM,41.0,26.6,57,29.83,10.0,SW,10.4,-,N/A,,Clear,220,2013-01-18 18:14:00
12:34 PM,41.0,26.6,57,29.82,10.0,SW,8.1,19.6,N/A,,Clear,230,2013-01-18 18:34:00
12:54 PM,42.8,28.4,57,29.81,10.0,WSW,6.9,-,N/A,,Clear,240,2013-01-18 18:54:00
1:14 PM,44.6,28.4,53,29.79,10.0,SW,5.8,-,N/A,,Clear,230,2013-01-18 19:14:00
1:35 PM,46.4,30.2,53,29.78,10.0,WSW,6.9,-,N/A,,Clear,250,2013-01-18 19:35:00
1:54 PM,46.4,30.2,53,29.77,10.0,SW,12.7,19.6,N/A,,Clear,230,2013-01-18 19:54:00
2:14 PM,46.4,30.2,53,29.77,10.0,SW,12.7,19.6,N/A,,Clear,220,2013-01-18 20:14:00
2:35 PM,46.4,30.2,53,29.78,10.0,SW,9.2,-,N/A,,Clear,230,2013-01-18 20:35:00
2:54 PM,46.4,32.0,57,29.77,10.0,SW,11.5,-,N/A,,Clear,220,2013-01-18 20:54:00
3:14 PM,44.6,30.2,57,29.77,10.0,SW,5.8,-,N/A,,Clear,230,2013-01-18 21:14:00
3:35 PM,44.6,30.2,57,29.76,10.0,Calm,Calm,-,N/A,,Clear,0,2013-01-18 21:35:00
3:54 PM,44.6,30.2,57,29.76,10.0,WSW,4.6,-,N/A,,Clear,250,2013-01-18 21:54:00
4:14 PM,44.6,32.0,61,29.77,10.0,WSW,10.4,-,N/A,,Clear,250,2013-01-18 22:14:00
4:35 PM,42.8,30.2,61,29.77,10.0,WSW,5.8,-,N/A,,Clear,240,2013-01-18 22:35:00
4:54 PM,42.8,30.2,61,29.78,10.0,WSW,8.1,-,N/A,,Clear,250,2013-01-18 22:54:00
5:14 PM,41.0,30.2,65,29.78,10.0,SW,5.8,-,N/A,,Clear,230,2013-01-18 23:14:00
5:35 PM,41.0,30.2,65,29.78,10.0,WSW,6.9,-,N/A,,Clear,250,2013-01-18 23:35:00
5:54 PM,41.0,30.2,65,29.78,10.0,WSW,8.1,-,N/A,,Clear,240,2013-01-18 23:54:00
6:14 PM,39.2,30.2,70,29.78,10.0,WSW,4.6,-,N/A,,Clear,250,2013-01-19 00:14:00
6:35 PM,39.2,30.2,70,29.78,10.0,West,6.9,-,N/A,,Clear,270,2013-01-19 00:35:00
6:54 PM,39.2,30.2,70,29.79,10.0,West,9.2,-,N/A,,Clear,260,2013-01-19 00:54:00
7:14 PM,37.4,30.2,75,29.79,10.0,West,5.8,-,N/A,,Clear,270,2013-01-19 01:14:00
7:35 PM,37.4,30.2,75,29.79,10.0,West,5.8,-,N/A,,Clear,270,2013-01-19 01:35:00
7:54 PM,37.4,30.2,75,29.80,10.0,West,3.5,-,N/A,,Clear,270,2013-01-19 01:54:00
8:14 PM,37.4,28.4,70,29.80,10.0,West,4.6,-,N/A,,Clear,260,2013-01-19 02:14:00
8:34 PM,37.4,28.4,70,29.81,10.0,WNW,5.8,-,N/A,,Clear,300,2013-01-19 02:34:00
8:54 PM,35.6,30.2,81,29.81,10.0,WNW,6.9,-,N/A,,Clear,290,2013-01-19 02:54:00
9:14 PM,37.4,28.4,70,29.80,10.0,WNW,5.8,16.1,N/A,,Clear,290,2013-01-19 03:14:00
9:34 PM,35.6,28.4,75,29.81,10.0,NW,3.5,-,N/A,,Clear,320,2013-01-19 03:34:00
9:54 PM,35.6,30.2,81,29.81,10.0,West,5.8,-,N/A,,Clear,280,2013-01-19 03:54:00
10:14 PM,35.6,28.4,75,29.81,10.0,WNW,5.8,-,N/A,,Clear,300,2013-01-19 04:14:00
10:34 PM,35.6,28.4,75,29.81,10.0,WNW,4.6,-,N/A,,Clear,290,2013-01-19 04:34:00
10:54 PM,33.8,28.4,81,29.81,10.0,West,3.5,-,N/A,,Clear,260,2013-01-19 04:54:00
11:14 PM,33.8,28.4,81,29.80,10.0,Calm,Calm,-,N/A,,Clear,0,2013-01-19 05:14:00
11:34 PM,33.8,28.4,81,29.80,10.0,Calm,Calm,-,N/A,,Clear,0,2013-01-19 05:34:00